Simultaneous Nadir Overpasses (SNOs) Predictions

Prediction of SNOs between AQUA and METOP-B Satellite Orbit:

Table of predicted SNOs for the next 14.0 days since TLE Epoch: 8/12/2023
Index Date (AQUA) Time (AQUA) Lat,Lon (AQUA) SZA (AQUA ) Date (METOP-B) Time (METOP-B) Lat,Lon (METOP-B) SZA (METOP-B ) Distance(km) Time Diff (sec)
1 08/12/2023 06:35:52 74.69, 77.12 59.65 08/12/2023 06:35:32 74.69, 77.03 59.66 2.83 20
2 08/12/2023 07:25:17 -74.76,-115.40 120.27 08/12/2023 07:26:12 -74.77,-115.43 120.26 1.58 55
3 08/14/2023 23:38:45 -74.67, 1.48 119.56 08/14/2023 23:37:51 -74.67, 1.39 119.54 2.69 54
4 08/15/2023 00:28:11 74.73, 168.97 60.52 08/15/2023 00:28:29 74.76, 168.97 60.56 3.74 18
5 08/17/2023 17:31:05 -74.75, 93.22 118.61 08/17/2023 17:30:49 -74.74, 93.31 118.62 3.12 16
6 08/17/2023 18:20:30 74.77, -99.17 61.43 08/17/2023 18:21:28 74.78, -99.25 61.43 2.59 58
7 08/20/2023 10:33:58 74.72, 17.60 62.24 08/20/2023 10:33:07 74.71, 17.65 62.23 2.31 51
8 08/20/2023 11:23:23 -74.78,-174.90 117.69 08/20/2023 11:23:47 -74.79,-174.79 117.68 3.45 24
9 08/23/2023 03:36:43 -74.43, -57.35 117.17 08/23/2023 03:35:33 -74.33, -58.93 117.22 48.47 70
10 08/23/2023 04:26:14 74.76, 109.48 63.19 08/23/2023 04:26:04 74.75, 109.52 63.19 1.18 10
11 08/23/2023 05:15:39 -74.81, -83.01 116.74 08/23/2023 05:16:45 -74.79, -83.04 116.77 2.26 66
12 08/25/2023 21:29:04 -74.71, 33.92 115.94 08/25/2023 21:28:24 -74.71, 33.82 115.93 2.81 40
13 08/25/2023 22:18:30 74.79,-158.63 64.16 08/25/2023 22:19:02 74.79,-158.62 64.16 0.74 32



Historial Predications of SNOs between AQUA and METOP-B
